Location: Achter de Vree
(52.4333°N, 5.9500°E)
Time: 10:16:30
(UTC+00:00)

Daily predictions for brighter satellites

Satellite Brightness Start Highest point End
(mag) Time Altitude Azimuth Time Altitude Azimuth Time Altitude Azimuth
Cosmos 724 4.3 19:55:57 10° SW 20:01:58 83° SE 20:07:54 10° NE
Ariane Rocket 4.0 19:58:58 10° SE 20:03:26 33° ENE 20:07:57 10° N
Cosmos 1758 Rocket 4.0 20:01:24 10° N 20:05:40 47° ENE 20:09:56 10° SSE
SPOT 3 Rocket 4.2 20:02:00 10° SE 20:06:49 43° ENE 20:11:40 10° N
Spot 2 Rocket 3.5 20:03:39 10° SSE 20:08:40 79° ENE 20:13:44 10° NNW
Cosmos 2333 Rocket 2.5 20:04:36 10° NNW 20:10:16 62° NE 20:15:56 10° SE
Cosmos 1725 Rocket 4.1 20:04:23 10° S 20:10:39 87° W 20:16:56 10° N
ERS-1 Rocket 3.9 20:09:58 10° S 20:14:49 49° W 20:19:43 10° NNW
Tsikada Rocket 4.1 20:11:15 10° N 20:17:27 87° W 20:23:36 10° S
Cosmos 2360 Rocket 2.8 20:18:37 10° NNW 20:24:09 49° NE 20:29:39 10° SE
Cosmos 2016 Rocket 4.2 20:19:03 10° SSW 20:25:18 77° WNW 20:31:30 10° N
USA 245 4.4 20:20:13 10° SSE 20:26:01 65° ENE 20:31:27 10° N
Cosmos 1461 3.3 20:23:25 10° S 20:26:41 30° ESE 20:29:57 10° ENE
CZ-4B R/B 4.1 20:22:27 10° S 20:27:56 50° W 20:33:24 10° NNW
Cosmos 1602 Rocket 4.0 20:25:42 10° N 20:29:53 47° ENE 20:33:49 11° SSE
CZ-4B R/B 3.7 20:25:38 10° SE 20:30:15 53° ENE 20:34:59 10° N
CZ-4C R/B 2.9 20:25:51 10° WSW 20:30:17 54° NNW 20:36:06 10° NE
Cosmos 1992 Rocket 4.0 20:26:20 10° SSW 20:31:30 70° ESE 20:36:42 10° NNE
YAOGAN 11 4.1 20:28:56 10° NNE 20:33:22 68° ESE 20:37:48 10° S
Cosmos 1777 Rocket 4.4 20:31:22 10° NNW 20:36:31 54° ENE 20:41:09 12° SE
ISS -3.8 20:33:31 10° W 20:36:52 76° S 20:40:13 10° E
Cosmos 2219 Rocket 3.0 20:32:08 10° NNW 20:37:31 42° NE 20:42:48 10° ESE
Meteor 1-25 Rocket 4.3 20:32:50 10° N 20:38:30 65° ENE 20:43:46 11° SSE
Cosmos 1437 Rocket 2.8 20:37:00 10° S 20:40:26 48° E 20:43:56 10° NNE
USA 290 4.1 20:39:46 13° ESE 20:40:30 14° E 20:42:09 10° ENE
SL-08 R/B 3.7 20:38:50 10° NNE 20:43:39 70° WNW 20:48:21 10° SSW
Cosmos 1503 Rocket 4.5 20:39:58 10° NNW 20:45:01 50° ENE 20:49:23 14° SE
Cosmos 1626 Rocket 3.8 20:41:56 10° NNW 20:46:17 69° W 20:50:38 10° S
DEBRIS 3.5 20:43:36 10° WSW 20:46:45 62° SSE 20:56:17 10° E
Cosmos 2098 Rocket 3.7 20:44:22 12° SSE 20:48:23 38° E 20:52:13 10° NNE
NOSS 3-3 (A) 3.8 20:44:29 10° SW 20:49:47 87° SE 20:56:15 10° NE
Terra 3.7 20:48:43 10° SSW 20:52:37 26° W 20:56:34 10° NW
Cosmos 2151 3.0 20:50:11 10° NNW 20:54:18 75° W 20:58:09 11° S
Cosmos 2322 Rocket 2.2 20:50:22 10° NNW 20:56:04 80° ENE 21:00:46 15° SE
Cosmos 1486 Rocket 4.0 20:50:56 10° NNW 20:56:13 82° ENE 21:00:35 15° SSE
IRS-1C Rocket 4.1 20:53:40 13° SSE 20:58:25 84° ENE 21:03:44 10° NNW
Cosmos 1607 4.5 20:52:56 10° WSW 20:59:04 64° NW 21:05:21 10° NE
Cosmos 1464 Rocket 4.3 20:53:50 12° SSE 20:59:21 50° E 21:05:18 10° NNE
Cosmos 909 Rocket 4.1 20:53:55 10° SW 21:00:12 87° NW 21:06:54 10° NE
Cosmos 2061 Rocket 4.4 20:54:12 10° SSW 21:00:24 68° WNW 21:06:43 10° N
Cosmos 2082 Rocket 3.0 20:56:16 10° SW 21:01:54 57° NW 21:07:33 10° NNE
USA 306 1.8 21:00:33 10° W 21:03:21 56° N 21:04:50 14° ENE
Meteor 2-10 4.3 20:58:54 10° N 21:04:38 70° ENE 21:09:14 16° SSE
Cosmos 1606 Rocket 4.0 21:03:17 17° SSE 21:06:19 42° E 21:10:23 10° NNE
Cosmos 1766 4.5 21:09:01 10° NNE 21:11:34 21° ENE 21:13:02 16° ESE
CZ-4B R/B 3.1 21:09:42 14° S 21:12:24 51° W 21:15:49 10° NNW
Cosmos 2237 Rocket 4.3 21:09:21 10° NNW 21:13:33 21° NNE 21:17:44 10° ENE
USA 186 3.9 21:11:54 10° SW 21:13:52 18° W 21:15:51 10° NW
Cosmos 1726 Rocket 4.1 21:12:34 20° SE 21:14:48 36° E 21:18:31 10° NNE
Okean O Rocket 3.3 21:12:33 10° SSW 21:16:14 27° W 21:19:56 10° NW
Cosmos 540 Rocket 4.3 21:13:16 18° SSE 21:16:17 32° ESE 21:20:50 10° NE
Aureole 1 Rocket 4.5 21:12:09 10° NNW 21:17:31 48° ENE 21:22:39 16° SE
Cosmos 1805 2.9 21:17:04 10° NNW 21:20:20 68° W 21:22:21 21° S
NOSS 3-3 (C) 4.0 21:16:21 10° SW 21:21:45 76° NW 21:28:23 10° NE
Cosmos 2278 4.2 21:16:25 10° NW 21:21:59 54° WSW 21:26:23 16° S
Meteor 1-5 Rocket 4.4 21:18:56 10° NNW 21:24:42 82° W 21:29:21 17° S
COSMOS 2428 3.8 21:20:02 10° NNW 21:25:18 36° NE 21:30:13 11° ESE
SL-16 R/B 3.1 21:21:07 10° NW 21:26:25 41° WSW 21:30:55 14° S
Okean 1-7 Rocket 3.6 21:22:57 10° NNW 21:27:26 80° W 21:30:35 19° S
CZ-2C R/B 2.4 21:27:14 24° SSW 21:28:36 51° WSW 21:31:20 10° NNW
NOSS 3-4 (A) 4.1 21:26:32 10° NW 21:33:04 60° SW 21:38:39 19° SSE
NOSS 3-4 (C) 4.1 21:27:09 10° NW 21:33:42 61° SW 21:39:17 19° SSE
Cosmos-2242 3.7 21:34:03 24° SE 21:35:48 34° E 21:39:33 10° NNE
Cosmos 2034 Rocket 4.1 21:32:54 18° S 21:37:44 64° E 21:43:59 10° NNE
Cosmos 1933 4.5 21:37:48 10° SW 21:41:22 38° WNW 21:44:59 10° N
Ariane Rocket 3.8 21:38:06 14° SSW 21:42:12 45° W 21:47:04 10° NNW
COSMOS 2406 3.9 21:37:23 10° SW 21:43:02 57° NW 21:48:43 10° NNE
ATLAS 2AS CENTAUR R/B 4.5 21:38:28 10° WNW 21:44:33 32° N 21:50:35 10° ENE
TSX-5 4.0 21:45:38 10° NNW 21:48:38 43° NE 21:50:06 25° ESE
Nadezhda 4 Rocket 4.3 21:45:28 10° NNW 21:51:31 63° W 21:56:12 17° S
Cosmos 2333 Rocket 3.6 21:49:22 10° NW 21:54:13 29° WSW 21:58:17 14° SSW
Helios 1B rocket 2.4 21:55:11 31° SE 21:56:31 51° ENE 21:59:56 10° N
Cosmos 1825 Rocket 4.2 21:52:22 10° NNW 21:56:35 49° W 21:59:16 21° SSW
Cosmos 1470 3.7 21:54:19 10° N 21:57:13 28° ENE 21:58:12 23° ESE
Cosmos 1763 Rocket 3.5 21:53:12 17° SSW 21:57:15 73° ESE 22:02:32 10° NNE
Cosmos 1536 2.8 21:54:09 10° N 21:57:49 59° ENE 21:59:12 34° SE
Okean 1 3.2 21:56:18 23° SSW 21:58:22 68° WNW 22:01:58 10° N
Cosmos 1898 Rocket 4.0 21:53:46 10° NNW 21:58:49 50° ENE 22:02:04 21° SE
Cosmos 1707 2.0 21:59:51 49° SE 22:00:10 53° E 22:02:56 10° NNE
Cosmos 2221 4.0 21:59:07 19° ESE 22:00:17 21° E 22:03:27 10° NE
Cosmos 1634 Rocket 4.2 21:57:45 24° SSE 22:01:25 55° E 22:07:27 10° NNE
Cosmos 1833 4.1 21:57:58 15° SSW 22:02:43 72° ESE 22:08:21 10° NE
Cosmos 1953 Rocket 3.6 21:58:22 10° NNW 22:02:43 71° W 22:04:56 28° S
Cosmos 1461 3.9 21:59:21 10° WSW 22:02:52 41° NW 22:06:23 10° NNE
CSL-04 DEB 4.5 22:01:35 32° SE 22:02:57 53° ENE 22:06:31 10° N
Cosmos 2297 Rocket 4.0 22:01:44 13° ESE 22:03:01 14° E 22:05:44 10° ENE
Cosmos 44 3.5 21:58:32 10° NW 22:03:58 80° SW 22:06:56 27° SSE
Cosmos 990 Rocket 4.2 21:58:56 10° NNW 22:04:02 61° WSW 22:06:54 26° S
Cosmos 2360 Rocket 3.1 22:02:50 10° NW 22:08:02 38° WSW 22:11:23 20° SSW
Cosmos 2322 3.9 22:04:33 10° NNW 22:10:16 70° NE 22:13:47 24° SE
ISS -3.8 22:10:17 10° W 22:13:36 62° SSW 22:14:19 46° SE
Cosmos 2026 Rocket 4.2 22:07:48 10° NNW 22:14:10 73° W 22:18:17 23° S
USA 290 3.0 22:12:09 18° SW 22:14:14 47° WNW 22:17:18 10° NNE
BREEZE-M DEB (TANK) 3.5 22:12:43 10° WSW 22:13:11 14° WSW 22:13:11 14° WSW
Cosmos 2058 Rocket 3.0 22:14:25 32° S 22:16:23 75° E 22:20:43 10° NNE
CZ-4C R/B 4.3 22:15:09 10° WNW 22:19:45 30° N 22:25:31 10° NE
Helios 1A 2.7 22:16:51 10° NNE 22:20:48 89° ESE 22:22:30 33° SSW
Cosmos 2219 Rocket 2.8 22:16:09 10° NW 22:21:32 46° WSW 22:24:29 25° S
Cosmos 1975 3.2 22:20:46 10° N 22:24:19 45° ENE 22:25:24 34° ESE
KORONAS-FOTON 3.4 22:25:06 50° S 22:25:51 74° E 22:29:15 10° NNE
Cosmos 841 Rocket 4.2 22:28:15 29° SE 22:30:02 38° ESE 22:34:52 10° NE
RESURS DK-1 2.2 22:27:11 10° NNW 22:31:11 84° ENE 22:32:35 39° SE
ARIANE 5 R/B 2.7 22:32:16 34° SSE 22:34:08 72° ENE 22:38:37 10° N
ALOS 2 2.8 22:33:58 33° SE 22:35:48 62° ENE 22:40:09 10° N
Cosmos 2322 Rocket 3.9 22:35:17 10° NW 22:39:28 22° WSW 22:42:34 14° SW
Cosmos 1766 4.2 22:42:14 10° NNW 22:45:01 27° W 22:45:46 25° WSW
Cosmos 372 Rocket 4.1 22:40:43 10° NNW 22:45:45 59° WSW 22:47:53 33° S
SL-16 R/B 4.2 22:41:27 10° NNW 22:46:09 25° NE 22:50:49 10° E
Cosmos 1271 Rocket 2.2 22:46:13 58° S 22:46:47 79° ESE 22:50:11 10° NNE
Cosmos 1842 2.6 22:47:39 62° SSW 22:48:06 79° W 22:51:16 10° N
Lacrosse 4 Rocket 3.5 22:51:57 13° E 22:51:57 13° E 22:53:39 10° ENE
Meteor 2-9 Rocket 4.1 22:47:56 10° NNW 22:53:21 82° W 22:55:56 33° S
Spot 4 3.8 22:51:57 36° S 22:53:55 79° WSW 22:58:45 10° NNW
PSLV R/B 3.9 22:50:34 10° NNE 22:54:44 49° E 22:55:59 37° SSE
Cosmos 540 Rocket 4.3 22:52:54 11° SW 22:57:37 47° WNW 23:02:36 10° NNE
Cosmos 2237 Rocket 2.5 22:53:03 10° NNW 22:58:44 65° NE 23:02:17 23° SE
BREEZE-M DEB (TANK) 4.1 22:46:19 10° WSW 23:01:28 65° SSE 23:05:19 10° E
CZ-2C R/B 3.3 22:58:57 23° SE 23:01:58 47° ENE 23:06:56 10° N
Cosmos 1980 3.8 22:57:13 10° NNW 23:02:54 73° ENE 23:06:13 26° SE
ARGOS Delta rocket 4.0 22:59:00 10° NNE 23:04:09 76° E 23:06:31 34° S
Cosmos 858 Rocket 4.4 22:59:05 10° NNW 23:04:18 83° ENE 23:06:42 33° SSE
Cosmos 1937 Rocket 3.5 23:02:16 10° NNW 23:07:24 70° WSW 23:09:26 36° S
Cosmos 2142 Rocket 4.5 23:05:17 30° S 23:08:36 84° E 23:14:51 10° NNE
NOSS 8 (H) 3.9 23:05:59 10° NW 23:08:51 89° WNW 23:08:57 84° SE
COSMOS 2428 2.9 23:04:15 10° NW 23:09:48 56° WSW 23:12:10 33° S
Cosmos 2180 Rocket 4.5 23:06:36 30° S 23:09:54 83° E 23:16:17 10° NNE
NOSS 0 Rocket 3.9 23:06:20 10° NW 23:12:28 68° WSW 23:15:26 32° S
Cosmos 2227 Rocket 3.8 23:11:04 18° SE 23:12:49 20° E 23:16:51 10° NE
Meteor 1-11 Rocket 3.7 23:07:27 10° NNW 23:13:10 86° W 23:15:45 34° S
Cosmos 468 Rocket 4.5 23:10:31 19° SW 23:14:12 58° WNW 23:19:25 10° NNE
MetOp-A 3.8 23:18:10 36° SSE 23:20:13 84° ENE 23:24:53 10° NNW
Meteor 1-10 Rocket 4.3 23:17:23 32° S 23:20:15 80° E 23:26:14 10° NNE
Cosmos 2263 Rocket 4.1 23:20:54 13° ESE 23:22:49 15° E 23:25:58 10° ENE
Cosmos 1812 Rocket 3.6 23:25:18 40° SSW 23:26:51 78° WNW 23:31:18 10° N
Cosmos 1238 Rocket 3.5 23:25:54 37° SE 23:26:56 45° E 23:31:08 10° NNE
Helios 1B rocket 4.2 23:29:08 15° WSW 23:29:47 15° W 23:31:55 10° NW
USA 234 3.4 23:24:34 10° ENE 23:30:57 52° SE 23:34:29 27° SSW
Cosmos 1470 4.0 23:28:24 10° NW 23:31:01 22° W 23:31:24 21° W
SeaSat 1 3.0 23:28:37 18° ESE 23:32:10 55° NE 23:36:58 10° NNW
CZ-2C R/B 3.4 23:27:20 10° NNE 23:33:06 69° ESE 23:35:48 33° S
ACS3 Solar Sail 3.0 23:28:57 10° NNE 23:34:09 30° E 23:37:20 19° SE
Meteor 1-27 Rocket 3.8 23:32:34 33° S 23:35:16 71° E 23:40:59 10° NNE
NOSS 8 (E) 4.1 23:33:04 10° NW 23:35:47 68° W 23:35:47 68° W
Cosmos 2221 3.1 23:35:23 30° SW 23:37:00 46° WNW 23:41:04 10° N
ATLAS 2AS CENTAUR R/B 3.9 23:30:40 10° NW 23:37:04 41° NNE 23:43:27 10° E
BlueWalker 3 3.7 23:41:17 17° ESE 23:41:17 17° ESE 23:42:31 10° E
Meteor 2-20 Rocket 4.4 23:37:28 32° SSE 23:40:07 67° E 23:45:48 10° NNE
Cosmos 2297 Rocket 2.2 23:43:29 33° SSW 23:46:02 71° ESE 23:51:41 10° NE
Meteor 2-20 4.4 23:46:32 31° SSW 23:49:42 80° WNW 23:55:50 10° N
Landsat 5 3.9 23:46:39 10° NNE 23:50:38 47° E 23:51:40 37° SE
Meteor 2-10 Rocket 3.8 23:48:32 10° N 23:54:04 76° ENE 23:57:07 28° SSE
GP-B 3.5 23:50:15 10° N 23:54:30 51° W 23:56:01 34° SW
Cosmos 1842 Rocket 4.0 23:53:33 35° SSE 23:55:02 51° E 23:59:19 10° NNE
